User: anonymous   Login
Location: Unspecified
(0.0000°N, 0.0000°E)
Time: 18:24:36
(UTC+00:00)
Language:

GONETS M 12 (M22) - Orbit

View from above orbital plane
View from above orbital plane
View from above satellite
View from above satellite

Ground track
Ground track

The orbit is defined by the following mean orbital elements,

1 40553U          26145.52327874 +.00000000 +00000-0 +96640-3 0 00004
2 40553  82.4913  46.2298 0016237  38.5464 321.6772 12.42890867    01
Epoch (UTC): 25 May 2026 12:33:31
Eccentricity: 0.0016237
inclination: 82.4913°
perigee height: 1482 km
apogee height: 1507 km
right ascension of ascending node: 46.2298°
argument of perigee: 38.5464°
revolutions per day: 12.42890867
mean anomaly at epoch: 321.6772°

The dashed part of the orbit path shows where the satellite is in the earth's shadow,  

DLR